Dunkirk, NY

4:45 PM EST on November 18, 2019 (GMT -0500)
Chautauqua County-Dunkirk

Weather History for KDKK - October, 2019

Change the Weather History Date:

Monday, October 21, 2019

  Actual Average Record
Temperature  
Mean Temperature 55 °F -  
Max Temperature 73 °F 58 °F 81 °F (2007)
Min Temperature 37 °F 41 °F 29 °F (1974)
Degree Days  
Heating Degree Days 10    
Growing Degree Days 5 (Base 50)    
Moisture  
Dew Point 40 °F    
Average Humidity 61    
Maximum Humidity 93    
Minimum Humidity 30    
Precipitation  
Precipitation 0.00 in - - ()
Sea Level Pressure  
Sea Level Pressure 29.97 in    
Wind  
Wind Speed 4 mph (SE)    
Max Wind Speed 18 mph    
Max Gust Speed 26 mph    
Visibility 9 miles    
Events      
Averages and records for this station are not official NWS values.
T = Trace of Precipitation, MM = Missing Value Source: NWS Daily Summary

Daily Weather History Graph

Daily Weather History Graph

Search for Another Location

Airport or City:

Astronomy

Oct. 21, 2019 Rise Set
Actual Time 7:36 AM EDT 6:25 PM EDT
Civil Twilight 7:08 AM EDT 6:54 PM EDT
Nautical Twilight 6:35 AM EDT 7:27 PM EDT
Astronomical Twilight 6:02 AM EDT 7:59 PM EDT
Moon No Moon Rise 2:57 PM EDT (10/21)
Length of Visible Light 11h 46m
Length of Day
10h 49m
Waning Gibbous, 48% of the Moon is Illuminated
Oct 21
Waning Gibbous
Oct 27
New
Nov 4
First Quarter
Nov 12
Full
Nov 19
Last Quarter

Hourly Weather History & Observations

Time (EDT) Temp. Windchill Dew Point Humidity Pressure Visibility Wind Dir Wind Speed Gust Speed Precip Events Conditions
12:53 AM 43.0 °F 41.3 °F 39.9 °F 89% 30.01 in 10.0 mi South 3.5 mph - N/A   Clear
1:53 AM 43.0 °F - 39.9 °F 89% 30.01 in 10.0 mi Calm Calm - N/A   Clear
2:53 AM 41.0 °F - 39.0 °F 93% 30.02 in 10.0 mi Calm Calm - N/A   Clear
3:53 AM 41.0 °F - 37.9 °F 89% 30.02 in 8.0 mi Calm Calm - N/A   Clear
4:51 AM 39.2 °F 37.0 °F 37.4 °F 93% 30.04 in 2.0 mi South 3.5 mph - N/A   Clear
4:53 AM 39.0 °F - 37.0 °F 93% 30.04 in 3.0 mi Calm Calm - N/A   Clear
5:53 AM 42.1 °F - 39.0 °F 89% 30.02 in 10.0 mi Calm Calm - N/A   Clear
6:53 AM 39.9 °F - 37.9 °F 93% 30.05 in 10.0 mi Calm Calm - N/A   Clear
7:53 AM 37.9 °F - 36.0 °F 93% 30.07 in 9.0 mi Calm Calm - N/A   Unknown
8:53 AM 46.9 °F - 43.0 °F 86% 30.06 in 9.0 mi Calm Calm - N/A   Unknown
9:53 AM 60.1 °F - 46.0 °F 60% 30.04 in 10.0 mi East 9.2 mph - N/A   Unknown
10:53 AM 64.9 °F - 44.1 °F 47% 30.03 in 10.0 mi ESE 10.4 mph - N/A   Clear
11:53 AM 66.9 °F - 43.0 °F 42% 29.99 in 10.0 mi East 11.5 mph - N/A   Clear
12:53 PM 70.0 °F - 44.1 °F 39% 29.99 in 10.0 mi ESE 8.1 mph - N/A   Clear
1:53 PM 72.0 °F - 42.1 °F 34% 29.95 in 10.0 mi SE 8.1 mph - N/A   Clear
2:53 PM 73.0 °F - 42.1 °F 33% 29.92 in 10.0 mi ESE 13.8 mph - N/A   Clear
3:53 PM 73.9 °F - 41.0 °F 30% 29.90 in 10.0 mi ESE 10.4 mph - N/A   Clear
4:53 PM 73.0 °F - 39.9 °F 30% 29.89 in 10.0 mi SSE 10.4 mph - N/A   Clear
5:53 PM 68.0 °F - 42.1 °F 39% 29.87 in 10.0 mi East 6.9 mph - N/A   Clear
6:53 PM 68.0 °F - 39.9 °F 36% 29.85 in 10.0 mi East 5.8 mph - N/A   Clear
7:53 PM 68.0 °F - 39.0 °F 35% 29.85 in 10.0 mi Calm Calm - N/A   Overcast
8:53 PM 68.0 °F - 37.9 °F 33% 29.80 in 10.0 mi South 18.4 mph 26.5 mph N/A   Overcast
9:53 PM 68.0 °F - 39.0 °F 35% 29.80 in 10.0 mi South 8.1 mph 18.4 mph N/A   Overcast